13.05.2024;13:00;2
13.05.2024;12:00;3
13.05.2024;11:00;5
13.05.2024;10:00;13
13.05.2024;09:00;13
13.05.2024;08:00;16
13.05.2024;07:00;25
13.05.2024;06:00;19
13.05.2024;05:00;14
13.05.2024;04:00;11
13.05.2024;03:00;8
13.05.2024;02:00;8
13.05.2024;01:00;8
13.05.2024;00:00;8
12.05.2024;23:00;16
12.05.2024;22:00;18
12.05.2024;21:00;9
12.05.2024;20:00;4
12.05.2024;19:00;3
12.05.2024;18:00;3
12.05.2024;17:00;2
12.05.2024;16:00;3
12.05.2024;15:00;3
12.05.2024;14:00;3
12.05.2024;13:00;3
12.05.2024;12:00;4
12.05.2024;11:00;6
12.05.2024;10:00;9
12.05.2024;09:00;12
12.05.2024;08:00;19
12.05.2024;07:00;13
12.05.2024;06:00;15
12.05.2024;05:00;13
12.05.2024;04:00;13
12.05.2024;03:00;15
12.05.2024;02:00;19
12.05.2024;01:00;12
12.05.2024;00:00;15
11.05.2024;23:00;10
11.05.2024;22:00;7
11.05.2024;21:00;6
11.05.2024;20:00;4
11.05.2024;19:00;3
11.05.2024;18:00;3
11.05.2024;17:00;3
11.05.2024;16:00;3
11.05.2024;15:00;3
11.05.2024;14:00;4
